Location: Gradaro
(45.0833°N, 10.8833°E)
Time: 15:21:53
(UTC+00:00)

Cosmos 1782 - Pass Details

Date: 29 November 2020
Orbit: 537 x 551 km, 82.5° (Epoch: 24 January)

Event Time Altitude Azimuth Distance (km) Brightness Sun altitude
Exits shadow 04:14:39 46° 18° (NNE) 744 3.4 -23.7°
Maximum altitude 04:15:40 67° 80° (E) 603 3.1 -23.6°
Drops below altitude 10° 04:19:39 10° 163° (SSE) 1,824 5.8 -22.9°
Sets 04:21:49 0° 166° (SSE) 2,713 6.6 -22.5°
